Simultaneous Nadir Overpasses (SNOs) Predictions

Prediction of SNOs between GOES-16 and NOAA-19 Satellite Orbit:

Table of predicted SNOs for the next 14.0 days since TLE Epoch: 3/14/2025
Index Date Time (GOES-16) GOES-16 Lat,Lon NOAA-19 Lat,Lon Distance(km) Time Diff (sec)
1 03/15/2025 02:52:40 -0.06, -75.30 -0.52, -77.42 240.75 80
2 03/16/2025 02:37:26 -0.06, -75.32 0.15, -74.36 109.31 80
3 03/17/2025 02:24:52 -0.06, -75.34 0.89, -71.32 459.48 80
4 03/18/2025 14:56:12 0.06, -75.40 0.86, -78.84 392.71 80
5 03/19/2025 14:46:17 0.06, -75.42 0.17, -75.78 42.26 80
6 03/20/2025 14:33:43 0.06, -75.44 -0.53, -72.73 308.42 80
7 03/23/2025 02:52:29 -0.06, -75.46 -0.44, -77.21 199.77 80
8 03/24/2025 02:37:14 -0.05, -75.48 0.26, -74.16 150.94 80
9 03/26/2025 14:55:58 0.05, -75.57 0.74, -78.63 348.87 80
10 03/27/2025 14:46:02 0.05, -75.60 0.07, -75.57 4.09 80
11 03/28/2025 14:33:28 0.05, -75.63 -0.66, -72.52 354.68 80
